www.pogodaiklimat.ru
ПОГОДА в Шангалах
Время
(UTC), дата
09 25.05
12 25.05
15 25.05
18 25.05
21 25.05
00 26.05
03 26.05
06 26.05
09 26.05
12 26.05
15 26.05
18 26.05
21 26.05
00 27.05
03 27.05
06 27.05
09 27.05
12 27.05
15 27.05
18 27.05
21 27.05
00 28.05
03 28.05
06 28.05
09 28.05
12 28.05
15 28.05
18 28.05
21 28.05
00 29.05
03 29.05
06 29.05
09 29.05
12 29.05
15 29.05
18 29.05
21 29.05
00 30.05
03 30.05
06 30.05
09 30.05
12 30.05
15 30.05
18 30.05
21 30.05
00 31.05
03 31.05
06 31.05
09 31.05
12 31.05
15 31.05
18 31.05
21 31.05
00 1.06
03 1.06
06 1.06
Ветер
(напр.,м/с)
Видим. Явления Облачность Т
(С)
Тd
(С)
f
(%)
Тe
(С)
Тes
(С)
Комфортность P
(гПа)
Po
(гПа)
Тmin
(С)
Tmax
(С)
R
(мм)
R24
(мм)
S
(см)
Ю 4 4000 м слаб. дождь 10/8 300 м
[Frnb Ac trans]
+8.5 +6.9 90 +5 +6 1018.0 1003.5
Ю 3 10 км в посл. час ливневой дождь 9/9 600 м
[Cb cap]
+9.1 +6.6 84 +7 +7 1020.3 1005.8
ЮВ 2 10 км 9/4 600 м
[Cb cap Ac trans]
+10.5 +6.2 75 +9 +10 1021.6 1007.1 +10.6 0.3
ЮВ 1 10 км {ливн. осадки} 9/6 840 м
[Cb cap Ac As]
+7.8 +7.5 98 +7 +7 1023.7 1009.1
штиль 0 20 км 9/0
[Ac As]
+6.9 +6.9 100 +6 +6 1025.4 1010.6
штиль 0 10 км гроза без осадков {ливн. осадки} 10/4
[Cu Sc]
+6.6 +6.6 100 +5 +5 1026.8 1012.0
Ю 2 10 км {ливн. осадки} 8/4 1000 м
[Cu hum Ac As]
+8.2 +7.2 93 +6 +7 1028.1 1013.4 +6.4 0.4
ЮЗ 2 50 км {ливн. осадки} 8/5 600 м
[Cu med, cong Ac trans]
+11.8 +6.0 68 +11 +14 1028.8 1014.3
ЮЗ 2 50 км 9/9 1000 м
[Sc]
+13.9 +4.5 53 +14 +15 1029.8 1015.3
ЮВ 1 50 км 8/5 600 м
[Cu Sc Ci fib]
+16.6 +4.1 43 +18 +22 1029.0 1014.8
штиль 0 10 км осадки на расстоянии 9/8 480 м
[Cb cap Ac trans Ci fib]
+16.6 +2.7 39 +17 +17 1028.3 1014.0 +17.3
В 1 10 км {ливн. осадки} 8/0
[Ac cuf Ci fib]
+11.4 +7.5 77 +11 +11 1028.6 1014.1
СВ 1 10 км 8/0
[Ac As]
+9.0 +6.4 84 +8 +8 1027.9 1013.2
штиль 0 10 км {ливн. осадки} 10/0
[Ac und]
+8.0 +6.6 91 +7 +7 1026.8 1012.1
штиль 0 10 км 9/0
[Ac cuf Cs]
+8.7 +7.5 92 +8 +9 1025.3 1010.7 +7.5 0.7
СЗ 1 10 км 9/4 1000 м
[Cu hum Ac trans]
+13.0 +9.2 78 +13 +16 1023.6 1009.3
В 1 50 км 9/6 800 м
[Cb cap Cc]
+17.0 +7.4 53 +18 +23 1021.6 1007.4
З 2 10 км осадки на расстоянии {ливн. осадки} [макс. диам. градин 7 мм] 9/8 660 м
[Cb cap Ac trans]
+13.6 +7.6 67 +13 +14 1020.9 1006.6
В 4 10 км {гроза, ливн. осадки} 9/8 720 м
[Cb cap Ac trans Ci fib]
+15.2 +8.6 65 +14 +15 1019.5 1005.3 +17.8 0.7
штиль 0 10 км {гроза, ливн. осадки} 8/5 600 м
[Cb cap Ac trans]
+10.8 +8.7 87 +10 +10 1019.4 1005.0
ЮЗ 1 10 км местами туман поземный 3/3 600 м
[Sc diur, vesp]
+8.2 +7.9 98 +7 +7 1019.3 1004.7
штиль 0 4000 м дымка 4/0
[Ac trans]
+6.0 +6.0 100 +5 +5 1019.3 1004.6
ЮЗ 1 4000 м дымка 3/0
[Ac trans]
+9.2 +8.3 94 +8 +11 1019.3 1004.8 +5.4 0.4
Ю 3 10 км 6/3 1000 м
[Cu med, cong Ac trans]
+15.7 +8.5 62 +15 +19 1019.1 1004.9
ЮЗ 3 50 км 9/8 930 м
[Cb cap Ac trans]
+18.4 +4.2 39 +19 +20 1018.7 1004.6
З 2 50 км 8/6 1020 м
[Cu med, cong Ac trans]
+20.7 +2.2 29 +22 +24 комфорт 1018.2 1004.3
З 3 50 км 4/3 600 м
[Cu hum Ci fib]
+21.0 +1.7 28 +22 +23 комфорт 1017.9 1004.0 +21.5
ЮЗ 1 н/о н/о +17.2 +2.3 37 +18 +18 1018.5 1004.4
штиль 0 20 км 6/0
[Ac trans]
+12.9 +5.2 59 +13 +13 1018.7 1004.4
ЮЗ 1 10 км 8/0
[Ac As]
+11.1 +5.0 66 +11 +11 1019.4 1005.0
СЗ 2 10 км 9/0
[Ac As]
+11.8 +7.0 72 +11 +12 1019.7 1005.3 +9.4
В 2 50 км 6/0
[Ac trans Ci fib]
+17.3 +7.1 51 +18 +24 1019.6 1005.5
СЗ 1 50 км гроза без осадков 9/3 600 м
[Cb calv Ac trans Cs]
+20.3 +5.3 37 +22 +28 комфорт 1018.7 1004.8
З 3 4000 м гроза, ливневой дождь 10/10 360 м
[Cb calv]
+12.4 +12.0 97 +11 +11 1021.1 1006.7
штиль 0 10 км {гроза, ливн. осадки} 10/3 600 м
[Cb cap Ac trans]
+12.7 +11.8 94 +12 +13 1020.5 1006.1 +20.8 15
С 1 10 км в посл. час ливневой дождь {гроза} 9/3 300 м
[Cb calv Ac trans Ci ing]
+11.4 +11.1 98 +11 +11 1020.9 1006.5
штиль 0 10 км местами туман поземный 3/0
[Ac trans Ci fib]
+8.2 +7.9 98 +7 +7 1021.3 1006.7
штиль 0 10 км туман поземный 3/0
[Ac trans Ci fib]
+5.0 +5.0 100 +4 +4 1022.1 1007.3
штиль 0 10 км туман поземный 3/0
[Ac trans Ci fib]
+8.1 +6.8 91 +7 +10 1022.4 1007.8 +4.0 0.8
В 2 50 км 3/1 600 м
[Cu hum Ac trans Ci fib]
+15.2 +6.5 56 +15 +22 1021.9 1007.6
В 2 50 км 8/6 800 м
[Cu med, cong Ac trans]
+16.9 +2.8 39 +17 +21 1021.3 1007.1
СВ 3 50 км 8/4 600 м
[Cu Sc Ac trans Ci fib]
+17.2 +1.5 35 +17 +20 1020.9 1006.7
С 4 10 км 8/5 600 м
[Cu Sc Ac trans Ci fib]
+16.6 -0.2 32 +16 +17 1020.0 1005.8 +18.0
С 3 10 км 9/3 1000 м
[Cu hum Ac As]
+13.3 +1.5 45 +12 +12 1020.2 1005.8
С 4 20 км 8/0
[Ac As]
+11.5 +3.6 58 +10 +10 1019.9 1005.5
С 4 10 км слаб. ливневой дождь 9/8 1410 м
[Cb cap Ac As]
+8.7 +5.9 83 +6 +6 1019.7 1005.2
С 5 10 км {ливн. осадки} 9/8 570 м
[Cb cap Ac As]
+8.8 +5.7 81 +5 +6 1018.3 1003.8 +8.3 0.0
С 5
{10}
10 км в посл. час ливневой дождь 10/10 480 м
[Cb cap]
+7.8 +5.5 85 +4 +4 1018.5 1003.9 +7.8
С 5
{10}
10 км слаб. ливневой дождь 10/10 500 м
[Cb cap]
+8.0 +6.5 90 +4 +4 1018.8 1004.2
С 4
{11}
10 км в посл. час ливневой дождь 9/6 450 м
[Cb cap Ac As Ci fib]
+10.8 +7.1 78 +8 +10 1018.0 1003.6
СВ 6-10
{13}
4000 м слаб. ливневой дождь 9/8 1000 м
[Cb cap Ac trans]
+11.0 +5.1 67 +8 +8 1018.0 1003.6 +11.7 0.3
С 5
{12}
10 км {ливн. осадки} 5/3 1000 м
[Sc Ac trans]
+9.6 +2.4 61 +7 +7 1018.5 1004.0
С 5 20 км 4/0
[Ac trans Ci fib]
+7.0 +0.4 63 +3 +3 1019.3 1004.6
С 5
{10}
н/о н/о +5.7 +0.6 70 +2 +2 1019.5 1004.8
С 5
{10}
10 км 9/0
[Ac As]
+6.1 +1.5 72 +2 +2 1020.1 1005.4 +5.5 0.0
С 4 50 км 9/3 600 м
[Cu hum Ac trans]
+8.9 +2.0 62 +6 +8 1020.7 1006.1
Местоположение метеостанции Шангалы (Архангельская область, Россия): широта 61.13 долгота 43.35 высота над уровнем моря 117 м.
В архиве по умолчанию представлена погода в Шангалах за последнюю неделю. Архивные данные за месяц целиком и за предыдущие месяцы, начиная с января 2011 года, Вы можете получить, выбрав интересующий диапазон дат из раскрывающегося списка и нажав кнопку "Найти!".
*Определитесь, кто Вы:
Внимание! Время в таблицах - всемирное. Для получения местного времени необходимо прибавить поправку, которая равна 3 ч.
Смотрите также архив погоды в соседних городах и на ближайших метеорологических станциях:
Партнеры нашего сайта:      
Пояснения к столбцам:
  • Ветер - указаны скорость ветра в м/с - средняя за 10 мин, порывы в срок и между сроками (в фигурных скобках) и направление, откуда дует ветер: С - северный,
  • СВ - северо-восточный, В - восточный, ЮВ - юго-восточный, Ю - южный, ЮЗ - юго-западный, З - западный, СЗ - северо-западный.
  • Видимость - горизонтальная дальность видимости в метрах или километрах. При видимости от 1 до 10 км при отсутствии осадков обычно наблюдается дымка, при ухудшении видимости до 1 км и менее - туман. В сухую погоду видимость может ухудшаться дымом, пылью или мглою.
  • Явления - указаны атмосферные явления, наблюдавшиеся в срок или в последний час перед сроком; фигурными скобками обозначены явления, наблюдавшиеся между сроками (за 1-3 часа до срока); квадратными скобками обозначены град или гололедные отложения с указанием их диаметра в мм.
  • Облачность - указаны через наклонную черту общая и нижняя облачность в баллах и высота нижней границы облаков в метрах; квадратными скобками обозначены формы облаков: Ci - перистые, Cs - перисто-слоистые, Cc - перисто-кучевые, Ac - высококучевые, As - высокослоистые, Sc - слоисто-кучевые, Ns - слоисто-дождевые, Cu - кучевые, Cb - кучево-дождевые. Подробнее классификацию облаков см. в Атласе облаков (PDF).
  • T - Температура воздуха - температура, измеренная на высоте 2 м над землей.
  • Td - Температура точки росы - температура, при понижении до которой содержащийся в воздухе водяной пар достигнет насыщения.
  • f - Относительная влажность воздуха - влажноcть воздуха, измеренная на высоте 2 м над землей.
  • Te - Эффективная температура - температура, которую ощущает одетый по сезону человек в тени. Характеристика душности погоды. При расчете учитывается влияние влажности воздуха и скорости ветра на теплоощущения человека.
  • Tes - Эффективная температура на солнце - температура, которую ощущает человек, с поправкой на солнечный нагрев. Характеристика знойности погоды. Зависит от высоты солнца над горизонтом, облачности и скорости ветра. Ночью, в пасмурную погоду, а также при ветре 12 м/с и более поправка равна нулю.
  • P - Атмосферное давление - приведенное к уровню моря атмосферное давление.
  • Po - Атмосферное давление - измеренное на уровне метеостанции атмосферное давление.
  • Tmin - Минимальная температура - минимум температуры воздуха на высоте 2 м над землей.
  • Tmax - Максимальная температура - максимум температуры воздуха на высоте 2 м над землей.
  • R - Количество осадков - Количество выпавших осадков за период времени, мм. При наведении курсора мыши на число - период времени, за который выпало указанное количество осадков.
  • R24 - Количество осадков - Количество выпавших осадков за 24 часа, мм.
  • S - Снежный покров - Высота снежного покрова, см. При наведении курсора мыши на число - состояние снежного покрова и степень покрытия местности в баллах.